Cheraw, SC

11:17 AM EST on February 25, 2017 (GMT -0500)
Cheraw

Weather History for KCQW - November, 2012

Change the Weather History Date:

Tuesday, November 6, 2012

  Actual Average (KFLO) Record (KFLO)
Temperature  
Mean Temperature 42 °F -  
Max Temperature 48 °F 67 °F 84 °F (1959)
Min Temperature 37 °F 43 °F 28 °F (1976)
Degree Days  
Heating Degree Days 22    
Moisture  
Dew Point 34 °F    
Average Humidity 75    
Maximum Humidity 93    
Minimum Humidity 54    
Precipitation  
Precipitation 0.00 in - - ()
Sea Level Pressure  
Sea Level Pressure 30.08 in    
Wind  
Wind Speed 13 mph (NNE)    
Max Wind Speed 28 mph    
Max Gust Speed 40 mph    
Visibility 10 miles    
Events Rain    
Averages and records for this station are not official NWS values.
T = Trace of Precipitation, MM = Missing Value Source: NWS Daily Summary

Daily Weather History Graph

Daily Weather History Graph

Search for Another Location

Airport or City:

Trip Planner

Search our weather history database for the weather conditions in past years. The results will help you decide how hot, cold, wet, or windy it might be!

Date:

Astronomy

Nov. 06, 2012 Rise Set
Actual Time 6:45 AM EST 5:21 PM EST
Civil Twilight 6:19 AM EST 5:47 PM EST
Nautical Twilight 5:49 AM EST 6:17 PM EST
Astronomical Twilight 5:19 AM EST 6:47 PM EST
Moon 11:55 PM EST (11/6) 12:38 PM EST (11/6)
Length of Visible Light 11h 28m
Length of Day
10h 35m
Waning Gibbous, 53% of the Moon is Illuminated
Nov 6
Waning Gibbous
Nov 6
Last Quarter
Nov 13
New
Nov 20
First Quarter
Nov 28
Full

Hourly Weather History & Observations

Time (EST) Temp. Windchill Dew Point Humidity Pressure Visibility Wind Dir Wind Speed Gust Speed Precip Events Conditions
12:15 AM 37.4 °F 32.1 °F 35.6 °F 93% 30.08 in 6.0 mi NNE 6.9 mph - N/A   Overcast
12:35 AM 37.4 °F 32.1 °F 35.6 °F 93% 30.08 in 5.0 mi NNE 6.9 mph - N/A   Overcast
12:55 AM 37.4 °F 32.1 °F 35.6 °F 93% 30.08 in 10.0 mi NNE 6.9 mph - N/A   Overcast
1:15 AM 37.4 °F 30.3 °F 35.6 °F 93% 30.08 in 10.0 mi NE 10.4 mph - N/A   Overcast
1:35 AM 37.4 °F 30.3 °F 35.6 °F 93% 30.08 in 10.0 mi NE 10.4 mph - N/A   Overcast
1:55 AM 37.4 °F 31.4 °F 35.6 °F 93% 30.08 in 10.0 mi NE 8.1 mph - N/A   Overcast
2:15 AM 37.4 °F 30.3 °F 35.6 °F 93% 30.09 in 10.0 mi NE 10.4 mph - N/A   Overcast
2:35 AM 39.2 °F 32.5 °F 35.6 °F 87% 30.08 in 10.0 mi ENE 10.4 mph - N/A   Overcast
2:55 AM 39.2 °F 33.6 °F 35.6 °F 87% 30.08 in 10.0 mi NE 8.1 mph - N/A   Overcast
3:15 AM 39.2 °F 33.6 °F 35.6 °F 87% 30.08 in 10.0 mi ENE 8.1 mph - N/A   Overcast
3:35 AM 39.2 °F 32.0 °F 35.6 °F 87% 30.09 in 10.0 mi NE 11.5 mph - N/A   Overcast
3:55 AM 39.2 °F 31.6 °F 35.6 °F 87% 30.08 in 10.0 mi NE 12.7 mph - N/A   Overcast
4:15 AM 39.2 °F 31.6 °F 35.6 °F 87% 30.06 in 10.0 mi ENE 12.7 mph 18.4 mph N/A   Overcast
4:35 AM 39.2 °F 31.6 °F 35.6 °F 87% 30.05 in 10.0 mi NE 12.7 mph 20.7 mph N/A   Overcast
4:55 AM 39.2 °F 33.6 °F 35.6 °F 87% 30.06 in 10.0 mi NE 8.1 mph 18.4 mph N/A   Overcast
5:15 AM 39.2 °F 33.0 °F 35.6 °F 87% 30.08 in 10.0 mi NE 9.2 mph - N/A   Overcast
5:35 AM 39.2 °F 33.0 °F 35.6 °F 87% 30.08 in 10.0 mi ENE 9.2 mph - N/A   Overcast
5:55 AM 39.2 °F 31.6 °F 35.6 °F 87% 30.08 in 10.0 mi NE 12.7 mph - N/A   Overcast
6:15 AM 39.2 °F 32.5 °F 35.6 °F 87% 30.08 in 10.0 mi ENE 10.4 mph - N/A   Overcast
6:35 AM 39.2 °F 32.5 °F 35.6 °F 87% 30.09 in 10.0 mi NNE 10.4 mph - N/A   Overcast
6:55 AM 39.2 °F 35.0 °F 35.6 °F 87% 30.10 in 10.0 mi NE 5.8 mph - N/A   Overcast
7:15 AM 39.2 °F 35.9 °F 35.6 °F 87% 30.12 in 10.0 mi ENE 4.6 mph - N/A   Overcast
7:35 AM 39.2 °F 33.6 °F 37.4 °F 93% 30.11 in 10.0 mi North 8.1 mph - N/A   Overcast
7:55 AM 39.2 °F 31.2 °F 37.4 °F 93% 30.09 in 10.0 mi NNE 13.8 mph - N/A   Overcast
8:15 AM 39.2 °F 30.5 °F 35.6 °F 87% 30.09 in 10.0 mi NNE 16.1 mph 19.6 mph N/A   Overcast
8:35 AM 39.2 °F 30.8 °F 35.6 °F 87% - 10.0 mi NNE 15.0 mph 20.7 mph N/A   Overcast
8:55 AM 39.2 °F 32.5 °F 35.6 °F 87% - 10.0 mi NNE 10.4 mph 16.1 mph N/A   Overcast
9:15 AM 39.2 °F 29.6 °F 35.6 °F 87% - 10.0 mi NNE 19.6 mph 27.6 mph N/A   Overcast
9:35 AM 39.2 °F 30.8 °F 35.6 °F 87% - 10.0 mi NNE 15.0 mph 20.7 mph N/A   Overcast
9:55 AM 41.0 °F 32.8 °F 35.6 °F 81% - 10.0 mi NNE 16.1 mph 27.6 mph N/A   Overcast
10:15 AM 41.0 °F 31.4 °F 35.6 °F 81% - 10.0 mi NNE 21.9 mph 32.2 mph N/A   Overcast
10:35 AM 41.0 °F 31.4 °F 35.6 °F 81% - 10.0 mi NNE 21.9 mph 31.1 mph N/A   Overcast
10:55 AM 42.8 °F 34.0 °F 33.8 °F 70% - 10.0 mi NNE 20.7 mph 28.8 mph N/A   Overcast
11:15 AM 42.8 °F 33.1 °F 35.6 °F 76% - 10.0 mi NNE 25.3 mph 34.5 mph N/A Rain Light Rain
11:35 AM 42.8 °F 33.1 °F 35.6 °F 76% - 10.0 mi NNE 25.3 mph 38.0 mph N/A   Overcast
11:55 AM 44.6 °F 36.1 °F 33.8 °F 66% - 10.0 mi NNE 21.9 mph 40.3 mph N/A   Overcast
12:15 PM 46.4 °F 37.7 °F 33.8 °F 62% - 10.0 mi NNE 26.5 mph 36.8 mph N/A   Overcast
12:35 PM 48.2 °F - 32.0 °F 54% - 10.0 mi NNE 27.6 mph 36.8 mph N/A   Overcast
12:55 PM 46.4 °F 37.9 °F 32.0 °F 57% - 10.0 mi NNE 25.3 mph 38.0 mph N/A   Overcast
1:15 PM 46.4 °F 38.5 °F 33.8 °F 62% - 10.0 mi North 21.9 mph 31.1 mph N/A   Overcast
1:35 PM 48.2 °F - 33.8 °F 58% - 10.0 mi North 24.2 mph 33.4 mph N/A   Overcast
1:55 PM 48.2 °F - 32.0 °F 54% - 10.0 mi North 18.4 mph 33.4 mph N/A   Overcast
2:15 PM 48.2 °F - 32.0 °F 54% - 10.0 mi North 19.6 mph 35.7 mph N/A   Overcast
2:35 PM 48.2 °F - 32.0 °F 54% - 10.0 mi North 19.6 mph 31.1 mph N/A   Overcast
2:55 PM 48.2 °F - 32.0 °F 54% - 10.0 mi North 19.6 mph 28.8 mph N/A   Overcast
3:15 PM 46.4 °F 39.2 °F 33.8 °F 62% - 10.0 mi North 18.4 mph 24.2 mph N/A   Overcast
3:35 PM 46.4 °F 40.1 °F 33.8 °F 62% - 10.0 mi North 15.0 mph 26.5 mph N/A   Overcast
3:55 PM 46.4 °F 40.7 °F 33.8 °F 62% - 10.0 mi North 12.7 mph 17.3 mph N/A   Overcast
4:15 PM 46.4 °F 39.8 °F 33.8 °F 62% - 10.0 mi NNE 16.1 mph 25.3 mph N/A   Overcast
4:35 PM 46.4 °F 39.5 °F 33.8 °F 62% - 10.0 mi NNE 17.3 mph 25.3 mph N/A   Overcast
4:55 PM 46.4 °F 39.5 °F 33.8 °F 62% - 10.0 mi NNE 17.3 mph 25.3 mph N/A   Overcast
5:15 PM 44.6 °F 37.8 °F 33.8 °F 66% - 10.0 mi North 15.0 mph 27.6 mph N/A   Overcast
5:35 PM 44.6 °F 38.4 °F 33.8 °F 66% - 10.0 mi North 12.7 mph 19.6 mph N/A   Overcast
5:55 PM 44.6 °F 37.2 °F 35.6 °F 71% - 10.0 mi North 17.3 mph 20.7 mph N/A   Overcast
6:35 PM 44.6 °F 38.1 °F 33.8 °F 66% - 10.0 mi NNE 13.8 mph 20.7 mph N/A   Overcast
6:55 PM 42.8 °F 36.2 °F 33.8 °F 70% - 10.0 mi NNE 12.7 mph 20.7 mph N/A   Overcast
7:15 PM 42.8 °F 37.0 °F 33.8 °F 70% - 10.0 mi North 10.4 mph 19.6 mph N/A   Overcast
7:35 PM 42.8 °F 34.5 °F 32.0 °F 66% - 10.0 mi North 18.4 mph 27.6 mph N/A   Overcast
7:55 PM 42.8 °F 36.6 °F 33.8 °F 70% - 10.0 mi North 11.5 mph - N/A   Overcast
8:15 PM 42.8 °F 37.0 °F 33.8 °F 70% - 10.0 mi North 10.4 mph 21.9 mph N/A   Overcast
8:35 PM 42.8 °F 36.6 °F 33.8 °F 70% - 10.0 mi North 11.5 mph 21.9 mph N/A   Overcast
8:55 PM 42.8 °F 35.4 °F 33.8 °F 70% - 10.0 mi North 15.0 mph 20.7 mph N/A   Overcast
9:15 PM 42.8 °F 35.4 °F 32.0 °F 66% - 10.0 mi NNE 15.0 mph 20.7 mph N/A   Overcast
9:35 PM 42.8 °F 35.1 °F 32.0 °F 66% - 10.0 mi NNE 16.1 mph 23.0 mph N/A   Overcast
9:55 PM 42.8 °F 34.0 °F 32.0 °F 66% - 10.0 mi NNE 20.7 mph 27.6 mph N/A   Overcast
10:15 PM 42.8 °F 35.4 °F 32.0 °F 66% - 10.0 mi NNE 15.0 mph 26.5 mph N/A   Overcast
10:35 PM 42.8 °F 35.4 °F 32.0 °F 66% - 10.0 mi NNE 15.0 mph 21.9 mph N/A   Overcast
10:55 PM 41.0 °F 33.1 °F 32.0 °F 70% - 10.0 mi North 15.0 mph 18.4 mph N/A   Overcast
11:15 PM 41.0 °F 34.7 °F 32.0 °F 70% - 10.0 mi North 10.4 mph - N/A   Overcast
11:35 PM 41.0 °F 33.9 °F 32.0 °F 70% - 10.0 mi North 12.7 mph 19.6 mph N/A   Overcast
11:55 PM 39.2 °F 33.6 °F 32.0 °F 75% - 10.0 mi North 8.1 mph - N/A   Overcast